Flag for Germany Weather past 2 weeks in Bocholt, North Rhine-Westphalia, Germany

Now
66 °F

Sunny.


Feels Like: 66 °F
Forecast: 58 / 78 °F
Wind: 2 mph from North

Location: Niederrhein

Current Time: Jul 31, 2014 at 11:29:00 PM

Latest Report: Jul 31, 2014 at 10:50 PM


Visibility: 10 mi

Pressure: 29.92 "Hg

Humidity: 73%

Dew point: 57 °F

Location of BocholtLocation

Historic Weather in Bocholt — Graph

°F

Bocholt temperature yesterday

Maximum temperature yesterday: 73 °F (at 1:20 PM)
Minimum temperature yesterday: 61 °F (at 11:20 PM)
Average temperature yesterday: 68 °F

Past Weeks' High & Low Weather Summary

 TemperatureHumidityPressure
High93 °F (Jul 19, 3:50 PM)100% (Jul 21, 10:50 PM)30.18 "Hg (Jul 21, 10:50 PM)
Low52 °F (Jul 31, 5:50 AM)28% (Jul 19, 3:50 PM)29.77 "Hg (Jul 19, 9:20 PM)
Average73 °F71%29.95 "Hg
* Reported Jul 16 9:20 PM — Jul 31 9:50 PM, Bocholt, Weather by CustomWeather, © 2014

Note: Actual official high and low records may vary slightly from our data, if they occured in-between our weather recording intervals... More about our weather records

Advertising

Bocholt weather history for previous 24 hours

 ConditionsComfort  
Time TempWeatherWind HumidityBarometerVisibility
9:50 PM
Jul 31
68 °FSunny.No wind64%29.92 "Hg10 mi
9:20 PM70 °FSunny.No wind60%29.92 "Hg10 mi
8:50 PM72 °FSunny.2 mph57%29.92 "Hg10 mi
8:20 PM75 °FSunny.2 mph47%29.92 "Hg10 mi
7:50 PM77 °FSunny.3 mph44%29.92 "Hg10 mi
7:20 PM77 °FSunny.3 mph44%29.92 "Hg10 mi
6:50 PM77 °FPassing clouds.5 mph44%29.92 "HgN/A
6:20 PM77 °FSunny.5 mph47%29.95 "Hg10 mi
5:50 PM77 °FPassing clouds.7 mph47%29.95 "HgN/A
5:20 PM77 °FPassing clouds.6 mph47%29.95 "HgN/A
4:50 PM77 °FPassing clouds.6 mph47%29.95 "HgN/A
4:20 PM77 °FSunny.5 mph51%29.95 "Hg10 mi
3:50 PM77 °FPassing clouds.7 mph44%29.98 "HgN/A
3:20 PM75 °FPassing clouds.5 mph50%29.98 "HgN/A
2:50 PM75 °FSunny.6 mph50%29.98 "Hg10 mi
2:20 PM75 °FSunny.5 mph54%29.98 "Hg10 mi
1:50 PM73 °FPassing clouds.6 mph53%29.98 "HgN/A
1:20 PM73 °FPassing clouds.5 mph57%30.01 "HgN/A
12:50 PM72 °FPassing clouds.7 mph61%30.01 "HgN/A
12:20 PM72 °FSunny.3 mph57%30.01 "Hg10 mi
11:50 AM70 °FPassing clouds.5 mph60%30.01 "HgN/A
11:20 AM70 °FPassing clouds.6 mph64%30.01 "HgN/A
10:50 AM68 °FPassing clouds.5 mph69%30.01 "HgN/A
10:20 AM68 °FPassing clouds.5 mph64%30.01 "HgN/A
9:50 AM66 °FPassing clouds.5 mph68%30.01 "HgN/A
9:20 AM64 °FSunny.3 mph78%30.01 "Hg10 mi
8:50 AM63 °FSunny.3 mph83%30.01 "Hg10 mi
8:20 AM61 °FSunny.2 mph88%30.01 "Hg10 mi
7:50 AM57 °FClear.3 mph94%30.01 "Hg10 mi
7:20 AM55 °FClear.1 mph100%30.01 "Hg10 mi
6:50 AM54 °FClear.2 mph100%30.01 "Hg10 mi
6:20 AM54 °FFog.No wind100%30.01 "Hg5 mi
5:50 AM52 °FClear.2 mph100%30.01 "Hg10 mi
5:20 AM54 °FClear.2 mph100%30.01 "Hg10 mi
4:50 AM54 °FClear.2 mph100%30.01 "Hg5 mi
11:50 PM
Jul 30
61 °FClear.3 mph83%30.01 "Hg10 mi
11:20 PM61 °FSunny.3 mph83%29.98 "Hg10 mi
Weather by CustomWeather, © 2014

See weather overviewHow to use our weather pages